SCP
0 0 0 -0 -0 -0 -0 -0 -0 -0 -0 -0 -0 0 0 0 0 0 0 0 0 0 0 0 0 0 0 0 0 0 0 0 0 0 0 0 0 0 0 0 0 0 0
0 -0 -0 -0 -0 -0 -0 -0 -0 -0 -0 -0 -0 -0 -0 0 0 0 0 0 0 0 0 0 0 0 0 0 0 0 0 0 0 0 0 0 0 0 0 0 0 0 0
0 -0 -0 -0 -0 -0 -0 -0 -0 -0 0 0 0 0 0 0 0 0 0 0 0 0 0 0 0 0 0 0 0 0 0 0 0 0 0 0 0 0 0 0 0 0 0
-0 -0 -0 -0 -0 -0 -0 -0 -0 -0 -0 0 0 1 1 0 0 0 0 1 0 0 0 0 0 0 0 0 0 0 0 0 0 0 0 0 0 0 0 0 0 0 0
-0 -0 0 0 -0 0 -0 -0 -0 -0 -0 -0 0 1 1 1 1 1 1 1 1 1 0 0 0 0 0 0 0 0 0 0 0 0 0 0 0 0 0 0 0 0 0
0 0 0 0 0 0 0 0 0 0 1 1 1 1 1 1 1 1 1 1 1 1 1 0 0 0 0 0 0 0 0 0 0 0 0 0 0 0 0 0 0 0 0
1 0 0 1 0 0 1 1 1 1 1 1 1 2 2 3 2 1 1 2 2 1 1 0 0 0 0 0 0 0 0 0 0 0 0 0 0 0 0 0 0 0 0
2 2 2 3 1 1 1 1 1 2 2 2 2 2 3 4 3 1 1 3 3 1 0 0 0 0 0 0 0 0 0 0 0 0 0 0 0 0 0 0 0 0 0
1 2 2 3 3 2 2 2 2 1 2 3 5 6 5 5 0 0 0 0 0 0 0 0 0 0 0 0 0 0 0 0 0 0 0 0 0 0 0 0 0 0 0
0 0 0 1 2 3 4 3 3 4 5 5 4 5 5 7 0 0 0 0 0 0 0 0 0 0 0 0 0 0 0 0 0 0 0 0 0 0 0 0 0 0 0
0 1 1 1 1 2 3 4 3 3 4 3 3 4 5 3 0 0 0 0 0 0 0 0 0 0 0 0 0 0 0 0 0 0 0 0 0 0 0 0 0 0 0
0 0 0 0 0 1 1 1 2 3 3 2 2 2 2 2 0 0 0 0 0 0 0 0 0 0 0 0 0 0 0 0 0 0 0 0 0 0 0 0 0 0 0
1 0 0 0 -0 -0 -0 1 1 1 2 2 2 1 1 1 1 0 0 0 0 0 0 0 0 0 0 0 0 0 0 0 0 0 0 0 0 0 0 0 0 0 0
0 1 0 0 -0 -0 -1 -0 1 2 2 2 2 1 1 1 1 0 0 0 0 0 0 0 0 0 0 0 0 0 0 0 0 0 0 0 0 0 0 0 0 0 0
0 0 0 0 1 0 -0 -0 0 1 1 2 1 1 1 1 0 0 0 0 0 0 0 0 0 0 0 0 0 0 0 0 0 0 0 0 0 0 0 0 0 0 0
0 0 0 0 0 1 1 0 0 0 0 0 0 0 1 0 0 0 0 0 0 0 0 0 0 -0 -0 0 0 0 0 0 0 0 0 0 0 0 0 0 0 0 0
0 0 0 0 0 0 0 1 1 0 0 0 0 0 0 0 0 0 0 0 0 0 0 0 0 -0 0 0 -0 -0 0 0 0 0 0 0 0 0 0 0 0 0 0
0 0 0 0 0 0 0 0 1 1 1 1 0 0 0 0 0 0 0 0 0 0 0 0 0 0 0 0 0 0 0 0 0 0 0 0 0 0 0 0 0 0 0
0 0 0 0 0 0 0 1 1 1 1 1 0 0 0 0 0 0 0 0 0 0 0 0 0 0 0 0 0 0 0 0 0 0 0 0 0 0 0 0 0 0 0
0 0 0 0 0 0 0 1 1 0 0 0 1 0 0 0 0 0 0 0 0 0 0 0 0 0 0 0 0 0 0 0 0 0 0 0 0 0 0 0 0 0 0
0 0 0 0 0 0 0 0 0 0 0 0 0 0 0 0 0 0 0 0 0 0 0 0 0 0 0 0 0 0 0 0 0 0 0 0 0 0 0 0 0 0 0
0 0 0 0 0 0 0 0 0 0 0 0 0 0 0 0 0 0 0 0 0 0 0 0 0 0 0 0 0 0 0 0 0 0 0 0 0 0 0 0 0 0 0
0 0 0 0 0 0 0 0 0 0 0 0 0 0 0 0 0 0 0 0 0 0 0 0 0 0 0 0 0 0 0 0 0 0 0 0 0 0 0 0 0 0 0
0 0 0 0 0 0 0 0 0 0 0 0 0 0 0 0 0 0 0 0 0 0 0 0 0 0 0 0 0 0 0 0 0 0 0 0 0 0 0 0 0 0 0
0 0 0 0 0 0 0 0 0 0 0 0 0 1 0 0 0 0 0 0 0 0 0 0 0 0 0 0 0 0 0 0 0 0 0 0 0 0 0 0 0 0 0
0 0 0 0 0 0 0 0 0 0 0 0 1 1 0 0 0 0 0 0 0 0 0 0 0 0 0 0 0 0 0 0 0 0 0 0 0 -0 0 0 0 0 0
Wind_Speed_500mb
51 50 49 51 55 53 55 55 51 46 42 43 39 39 42 44 45 39 34 30 34 34 32 32 29 29 17 17 18 20 22 24 23 20 26 33 33 26 20 16 10 8 9
46 48 49 50 52 53 56 52 53 51 50 49 46 46 43 41 41 41 40 35 40 40 37 35 32 28 26 31 24 25 23 25 26 23 28 28 31 31 26 19 11 11 15
44 43 43 44 50 53 55 56 52 55 56 54 54 52 49 45 44 43 44 41 41 38 37 36 35 33 30 25 29 27 25 23 27 22 24 25 26 25 26 21 15 17 13
33 37 42 46 47 49 49 54 57 58 58 60 60 58 55 54 50 47 46 46 47 46 45 43 40 39 34 35 36 31 26 25 26 29 29 32 30 32 24 21 16 16 16
32 39 42 41 41 43 46 49 55 61 64 62 62 63 62 62 52 51 53 53 54 54 52 48 44 43 38 39 33 36 35 32 29 30 32 30 32 30 31 25 21 17 18
30 31 35 40 47 50 52 53 57 59 62 70 72 68 66 67 59 64 61 57 59 60 60 56 49 49 45 45 46 47 41 36 36 33 34 36 33 31 29 25 21 18 17
33 19 20 20 33 43 48 52 56 58 59 70 71 66 76 76 74 74 68 67 63 67 67 63 57 54 49 49 52 54 49 46 40 38 34 34 36 33 30 31 23 21 19
6 4 7 12 25 35 41 44 45 48 54 57 60 68 72 78 78 77 80 61 60 59 48 40 48 45 52 51 54 55 51 49 48 39 34 32 32 35 34 24 26 28 23
23 20 20 19 19 25 27 38 43 44 51 56 62 66 71 68 78 87 86 76 80 68 40 56 70 46 53 53 53 46 40 38 45 44 41 41 41 31 29 28 28 26 21
13 18 23 30 32 29 25 26 30 43 48 50 58 61 61 56 70 67 64 64 71 71 70 92 87 99 93 65 60 48 44 44 37 49 43 40 35 33 34 35 27 25 22
7 9 14 26 35 41 44 36 31 36 43 46 46 50 59 69 63 64 71 65 64 85 91 85 89 76 74 60 63 62 54 47 41 42 38 36 38 37 40 39 30 25 22
18 19 22 28 30 35 45 50 40 37 49 43 49 52 58 51 47 56 55 65 80 71 86 83 72 82 60 61 66 65 56 56 41 38 37 36 35 35 34 33 31 28 24
25 24 22 23 21 30 39 48 48 40 35 36 39 44 50 46 45 56 67 65 68 66 67 68 66 76 71 60 65 65 61 62 51 47 44 41 38 35 35 36 34 37 32
27 30 29 28 29 33 35 40 44 44 39 38 40 35 38 37 51 61 56 54 46 43 57 54 51 63 68 67 66 67 67 65 54 49 45 39 38 39 40 37 33 32 29
28 26 28 34 35 34 32 32 38 44 42 39 31 32 35 40 50 53 50 54 53 55 55 54 70 82 81 78 79 80 67 61 54 51 45 41 40 39 36 35 32 31 32
28 32 37 39 42 40 37 37 42 42 46 47 57 59 41 46 52 49 43 45 50 65 64 76 83 86 89 86 83 77 72 57 54 56 47 44 44 41 36 33 32 33 33
31 33 40 46 52 53 51 44 44 39 43 47 47 52 58 60 62 60 54 44 52 69 85 76 81 90 92 92 93 80 76 68 63 54 57 54 47 41 40 38 35 34 34
36 39 42 47 47 53 55 50 44 40 44 50 46 44 45 45 51 48 43 43 59 80 94 86 74 75 78 92 92 89 75 72 59 51 50 50 48 46 43 41 39 38 36
37 41 44 47 47 46 48 45 44 41 44 48 53 45 46 42 44 47 45 57 74 92 100 85 79 74 74 71 84 86 82 82 68 57 55 54 52 51 49 42 40 40 37
40 44 47 43 43 45 45 46 46 42 45 48 53 46 47 49 49 54 55 55 73 81 81 104 95 82 77 82 83 83 85 83 63 65 57 56 55 48 52 46 43 39 33
44 43 43 46 42 47 51 49 46 44 42 42 44 52 41 46 49 56 61 66 73 78 81 92 100 93 88 89 75 80 90 64 63 63 65 60 58 58 54 47 41 43 35
44 47 47 46 46 47 52 53 52 51 45 44 40 48 52 40 47 54 62 66 73 79 78 81 91 95 92 75 77 81 67 65 65 66 64 60 59 57 50 43 46 41 38
45 48 50 51 50 52 52 53 55 55 50 48 41 41 54 50 49 59 61 59 68 70 69 75 82 80 68 72 73 71 68 70 64 58 63 62 59 52 47 46 46 45 48
44 53 58 53 52 53 54 53 52 52 50 49 51 50 62 62 57 59 64 61 68 73 77 64 62 67 67 73 79 68 62 65 72 69 58 55 58 51 48 45 43 42 41
54 50 52 60 64 60 53 56 56 52 49 47 49 52 52 53 51 52 51 60 68 76 81 67 66 66 68 69 59 61 62 66 73 69 69 59 50 45 45 42 40 47 42
62 62 61 63 64 61 59 51 51 50 47 44 49 49 47 45 51 57 61 52 61 69 70 64 60 59 55 57 57 60 63 66 67 61 49 50 52 44 46 47 48 44 37
Wind_Direction_500mb
224 222 224 225 225 224 226 227 224 226 225 224 227 225 225 227 230 231 226 229 243 247 254 261 257 257 248 245 231 229 230 225 222 202 215 217 203 193 212 213 239 187 249
218 219 221 224 221 225 227 228 228 226 230 229 231 233 234 226 226 228 230 229 242 250 258 260 261 259 250 221 224 228 231 226 213 213 213 216 197 208 217 211 194 211 217
221 218 212 216 222 226 230 229 228 231 233 234 234 236 237 238 236 232 229 227 238 248 256 261 261 260 256 229 227 235 225 218 211 217 220 208 202 196 208 203 198 204 194
220 216 220 221 222 224 228 232 232 239 240 239 239 241 240 242 239 235 231 230 235 242 247 253 254 254 251 235 225 218 213 212 211 204 212 201 199 200 197 209 215 206 208
229 225 226 226 230 233 230 230 233 232 238 243 245 244 245 243 235 233 233 235 238 242 248 252 253 255 253 238 219 217 212 211 219 209 206 205 203 206 200 214 216 223 235
246 231 234 246 251 250 252 257 252 245 242 243 241 244 247 244 235 241 245 240 245 247 247 251 249 255 248 237 220 216 219 206 205 209 206 205 206 208 207 207 213 225 221
262 282 242 241 253 253 254 252 253 254 253 254 245 239 242 247 247 248 248 247 246 253 256 251 249 252 247 235 221 221 224 218 207 210 210 209 207 200 209 201 212 208 194
119 251 310 329 290 273 273 262 253 244 243 245 243 245 249 247 247 248 253 241 230 239 247 250 258 253 259 239 227 223 222 220 216 216 216 214 203 203 215 207 199 178 181
21 13 17 17 340 309 288 273 264 250 244 245 252 251 250 244 244 254 247 229 233 236 244 289 311 269 264 254 234 225 215 216 217 205 203 206 206 209 203 176 174 174 183
60 29 17 14 8 357 328 296 271 261 261 253 251 257 257 240 244 248 251 246 226 229 258 259 247 249 255 246 232 222 214 211 199 205 206 204 210 201 190 168 186 192 201
13 355 346 345 343 341 342 334 283 265 261 268 266 257 249 246 251 243 252 235 254 267 259 252 237 240 227 218 225 225 220 212 200 199 195 189 185 189 185 187 188 195 206
326 326 327 333 333 332 327 325 315 272 264 268 270 248 246 256 256 258 246 248 258 268 266 254 252 229 241 217 219 220 217 211 193 187 189 192 193 197 200 209 210 204 214
306 305 299 300 299 318 328 324 312 297 270 264 264 259 256 256 248 254 254 263 265 262 255 256 246 235 221 204 219 214 209 207 191 194 197 200 203 204 204 213 214 219 224
301 301 298 294 294 308 315 315 304 298 280 265 263 253 258 243 243 243 255 246 245 245 245 246 232 189 183 207 209 208 210 202 197 205 203 200 201 200 206 210 212 220 219
307 310 300 294 289 288 289 291 296 297 285 268 249 253 248 244 249 245 252 246 239 227 222 214 182 180 184 199 205 209 209 209 210 208 202 201 204 200 202 204 206 211 219
312 305 295 291 285 281 281 288 290 293 286 275 268 255 242 244 243 259 255 256 249 222 209 201 195 193 193 195 202 209 212 208 212 204 204 203 202 200 201 206 211 218 225
310 307 299 289 279 274 274 278 279 284 287 273 266 265 252 254 258 256 248 240 236 223 209 199 200 197 198 198 202 206 206 208 205 204 210 204 204 205 206 210 218 222 229
302 306 304 293 285 268 266 268 273 278 285 288 275 264 260 257 250 249 251 224 217 216 209 204 203 199 200 203 207 206 203 212 208 213 213 209 207 208 212 217 224 230 233
300 294 292 289 285 272 261 259 266 272 281 287 284 272 264 259 255 243 238 231 213 215 213 209 205 207 202 204 209 211 208 205 205 209 211 208 209 213 217 222 228 233 241
296 293 293 281 277 270 255 256 263 270 278 288 282 275 264 259 241 235 231 233 228 221 222 220 220 212 208 205 208 210 206 207 211 212 211 210 211 217 227 228 230 242 243
299 295 291 284 272 260 258 257 263 271 274 280 284 272 273 265 258 244 234 229 229 228 229 228 230 221 217 216 210 210 208 219 209 217 212 210 217 221 226 228 232 239 240
299 291 287 281 275 266 257 259 261 267 268 275 280 273 273 265 263 256 250 239 235 236 236 233 228 228 224 215 210 211 212 205 211 211 214 210 219 222 222 229 234 243 257
289 288 286 279 274 272 267 264 265 267 268 272 272 266 265 271 270 267 260 248 243 238 234 231 228 225 215 217 213 210 208 207 206 202 201 208 219 221 227 236 241 247 242
278 276 281 275 271 270 266 266 264 267 269 267 274 270 266 271 279 268 259 256 244 238 232 233 224 215 209 208 210 209 209 209 210 205 207 215 217 221 230 234 234 243 244
268 271 284 280 267 261 261 259 259 264 267 269 272 267 265 272 273 269 268 258 246 238 233 227 219 216 219 220 209 208 212 209 209 205 208 202 215 220 228 240 247 248 242
271 269 272 274 267 259 260 256 257 260 265 268 266 262 271 282 274 265 264 270 260 244 225 220 220 219 214 212 210 208 207 203 199 193 199 214 218 230 234 240 239 243 238
Wind_Speed_850mb
51 50 49 51 55 53 55 55 51 46 42 43 39 39 42 44 45 39 34 30 34 34 32 32 29 29 17 17 18 20 22 24 23 20 26 33 33 26 20 16 10 8 9
46 48 49 50 52 53 56 52 53 51 50 49 46 46 43 41 41 41 40 35 40 40 37 35 32 28 26 31 24 25 23 25 26 23 28 28 31 31 26 19 11 11 15
44 43 43 44 50 53 55 56 52 55 56 54 54 52 49 45 44 43 44 41 41 38 37 36 35 33 30 25 29 27 25 23 27 22 24 25 26 25 26 21 15 17 13
33 37 42 46 47 49 49 54 57 58 58 60 60 58 55 54 50 47 46 46 47 46 45 43 40 39 34 35 36 31 26 25 26 29 29 32 30 32 24 21 16 16 16
32 39 42 41 41 43 46 49 55 61 64 62 62 63 62 62 52 51 53 53 54 54 52 48 44 43 38 39 33 36 35 32 29 30 32 30 32 30 31 25 21 17 18
30 31 35 40 47 50 52 53 57 59 62 70 72 68 66 67 59 64 61 57 59 60 60 56 49 49 45 45 46 47 41 36 36 33 34 36 33 31 29 25 21 18 17
33 19 20 20 33 43 48 52 56 58 59 70 71 66 76 76 74 74 68 67 63 67 67 63 57 54 49 49 52 54 49 46 40 38 34 34 36 33 30 31 23 21 19
6 4 7 12 25 35 41 44 45 48 54 57 60 68 72 78 78 77 80 61 60 59 48 40 48 45 52 51 54 55 51 49 48 39 34 32 32 35 34 24 26 28 23
23 20 20 19 19 25 27 38 43 44 51 56 62 66 71 68 78 87 86 76 80 68 40 56 70 46 53 53 53 46 40 38 45 44 41 41 41 31 29 28 28 26 21
13 18 23 30 32 29 25 26 30 43 48 50 58 61 61 56 70 67 64 64 71 71 70 92 87 99 93 65 60 48 44 44 37 49 43 40 35 33 34 35 27 25 22
7 9 14 26 35 41 44 36 31 36 43 46 46 50 59 69 63 64 71 65 64 85 91 85 89 76 74 60 63 62 54 47 41 42 38 36 38 37 40 39 30 25 22
18 19 22 28 30 35 45 50 40 37 49 43 49 52 58 51 47 56 55 65 80 71 86 83 72 82 60 61 66 65 56 56 41 38 37 36 35 35 34 33 31 28 24
25 24 22 23 21 30 39 48 48 40 35 36 39 44 50 46 45 56 67 65 68 66 67 68 66 76 71 60 65 65 61 62 51 47 44 41 38 35 35 36 34 37 32
27 30 29 28 29 33 35 40 44 44 39 38 40 35 38 37 51 61 56 54 46 43 57 54 51 63 68 67 66 67 67 65 54 49 45 39 38 39 40 37 33 32 29
28 26 28 34 35 34 32 32 38 44 42 39 31 32 35 40 50 53 50 54 53 55 55 54 70 82 81 78 79 80 67 61 54 51 45 41 40 39 36 35 32 31 32
28 32 37 39 42 40 37 37 42 42 46 47 57 59 41 46 52 49 43 45 50 65 64 76 83 86 89 86 83 77 72 57 54 56 47 44 44 41 36 33 32 33 33
31 33 40 46 52 53 51 44 44 39 43 47 47 52 58 60 62 60 54 44 52 69 85 76 81 90 92 92 93 80 76 68 63 54 57 54 47 41 40 38 35 34 34
36 39 42 47 47 53 55 50 44 40 44 50 46 44 45 45 51 48 43 43 59 80 94 86 74 75 78 92 92 89 75 72 59 51 50 50 48 46 43 41 39 38 36
37 41 44 47 47 46 48 45 44 41 44 48 53 45 46 42 44 47 45 57 74 92 100 85 79 74 74 71 84 86 82 82 68 57 55 54 52 51 49 42 40 40 37
40 44 47 43 43 45 45 46 46 42 45 48 53 46 47 49 49 54 55 55 73 81 81 104 95 82 77 82 83 83 85 83 63 65 57 56 55 48 52 46 43 39 33
44 43 43 46 42 47 51 49 46 44 42 42 44 52 41 46 49 56 61 66 73 78 81 92 100 93 88 89 75 80 90 64 63 63 65 60 58 58 54 47 41 43 35
44 47 47 46 46 47 52 53 52 51 45 44 40 48 52 40 47 54 62 66 73 79 78 81 91 95 92 75 77 81 67 65 65 66 64 60 59 57 50 43 46 41 38
45 48 50 51 50 52 52 53 55 55 50 48 41 41 54 50 49 59 61 59 68 70 69 75 82 80 68 72 73 71 68 70 64 58 63 62 59 52 47 46 46 45 48
44 53 58 53 52 53 54 53 52 52 50 49 51 50 62 62 57 59 64 61 68 73 77 64 62 67 67 73 79 68 62 65 72 69 58 55 58 51 48 45 43 42 41
54 50 52 60 64 60 53 56 56 52 49 47 49 52 52 53 51 52 51 60 68 76 81 67 66 66 68 69 59 61 62 66 73 69 69 59 50 45 45 42 40 47 42
62 62 61 63 64 61 59 51 51 50 47 44 49 49 47 45 51 57 61 52 61 69 70 64 60 59 55 57 57 60 63 66 67 61 49 50 52 44 46 47 48 44 37
Wind_Direction_850mb
224 222 224 225 225 224 226 227 224 226 225 224 227 225 225 227 230 231 226 229 243 247 254 261 257 257 248 245 231 229 230 225 222 202 215 217 203 193 212 213 239 187 249
218 219 221 224 221 225 227 228 228 226 230 229 231 233 234 226 226 228 230 229 242 250 258 260 261 259 250 221 224 228 231 226 213 213 213 216 197 208 217 211 194 211 217
221 218 212 216 222 226 230 229 228 231 233 234 234 236 237 238 236 232 229 227 238 248 256 261 261 260 256 229 227 235 225 218 211 217 220 208 202 196 208 203 198 204 194
220 216 220 221 222 224 228 232 232 239 240 239 239 241 240 242 239 235 231 230 235 242 247 253 254 254 251 235 225 218 213 212 211 204 212 201 199 200 197 209 215 206 208
229 225 226 226 230 233 230 230 233 232 238 243 245 244 245 243 235 233 233 235 238 242 248 252 253 255 253 238 219 217 212 211 219 209 206 205 203 206 200 214 216 223 235
246 231 234 246 251 250 252 257 252 245 242 243 241 244 247 244 235 241 245 240 245 247 247 251 249 255 248 237 220 216 219 206 205 209 206 205 206 208 207 207 213 225 221
262 282 242 241 253 253 254 252 253 254 253 254 245 239 242 247 247 248 248 247 246 253 256 251 249 252 247 235 221 221 224 218 207 210 210 209 207 200 209 201 212 208 194
119 251 310 329 290 273 273 262 253 244 243 245 243 245 249 247 247 248 253 241 230 239 247 250 258 253 259 239 227 223 222 220 216 216 216 214 203 203 215 207 199 178 181
21 13 17 17 340 309 288 273 264 250 244 245 252 251 250 244 244 254 247 229 233 236 244 289 311 269 264 254 234 225 215 216 217 205 203 206 206 209 203 176 174 174 183
60 29 17 14 8 357 328 296 271 261 261 253 251 257 257 240 244 248 251 246 226 229 258 259 247 249 255 246 232 222 214 211 199 205 206 204 210 201 190 168 186 192 201
13 355 346 345 343 341 342 334 283 265 261 268 266 257 249 246 251 243 252 235 254 267 259 252 237 240 227 218 225 225 220 212 200 199 195 189 185 189 185 187 188 195 206
326 326 327 333 333 332 327 325 315 272 264 268 270 248 246 256 256 258 246 248 258 268 266 254 252 229 241 217 219 220 217 211 193 187 189 192 193 197 200 209 210 204 214
306 305 299 300 299 318 328 324 312 297 270 264 264 259 256 256 248 254 254 263 265 262 255 256 246 235 221 204 219 214 209 207 191 194 197 200 203 204 204 213 214 219 224
301 301 298 294 294 308 315 315 304 298 280 265 263 253 258 243 243 243 255 246 245 245 245 246 232 189 183 207 209 208 210 202 197 205 203 200 201 200 206 210 212 220 219
307 310 300 294 289 288 289 291 296 297 285 268 249 253 248 244 249 245 252 246 239 227 222 214 182 180 184 199 205 209 209 209 210 208 202 201 204 200 202 204 206 211 219
312 305 295 291 285 281 281 288 290 293 286 275 268 255 242 244 243 259 255 256 249 222 209 201 195 193 193 195 202 209 212 208 212 204 204 203 202 200 201 206 211 218 225
310 307 299 289 279 274 274 278 279 284 287 273 266 265 252 254 258 256 248 240 236 223 209 199 200 197 198 198 202 206 206 208 205 204 210 204 204 205 206 210 218 222 229
302 306 304 293 285 268 266 268 273 278 285 288 275 264 260 257 250 249 251 224 217 216 209 204 203 199 200 203 207 206 203 212 208 213 213 209 207 208 212 217 224 230 233
300 294 292 289 285 272 261 259 266 272 281 287 284 272 264 259 255 243 238 231 213 215 213 209 205 207 202 204 209 211 208 205 205 209 211 208 209 213 217 222 228 233 241
296 293 293 281 277 270 255 256 263 270 278 288 282 275 264 259 241 235 231 233 228 221 222 220 220 212 208 205 208 210 206 207 211 212 211 210 211 217 227 228 230 242 243
299 295 291 284 272 260 258 257 263 271 274 280 284 272 273 265 258 244 234 229 229 228 229 228 230 221 217 216 210 210 208 219 209 217 212 210 217 221 226 228 232 239 240
299 291 287 281 275 266 257 259 261 267 268 275 280 273 273 265 263 256 250 239 235 236 236 233 228 228 224 215 210 211 212 205 211 211 214 210 219 222 222 229 234 243 257
289 288 286 279 274 272 267 264 265 267 268 272 272 266 265 271 270 267 260 248 243 238 234 231 228 225 215 217 213 210 208 207 206 202 201 208 219 221 227 236 241 247 242
278 276 281 275 271 270 266 266 264 267 269 267 274 270 266 271 279 268 259 256 244 238 232 233 224 215 209 208 210 209 209 209 210 205 207 215 217 221 230 234 234 243 244
268 271 284 280 267 261 261 259 259 264 267 269 272 267 265 272 273 269 268 258 246 238 233 227 219 216 219 220 209 208 212 209 209 205 208 202 215 220 228 240 247 248 242
271 269 272 274 267 259 260 256 257 260 265 268 266 262 271 282 274 265 264 270 260 244 225 220 220 219 214 212 210 208 207 203 199 193 199 214 218 230 234 240 239 243 238